Regional Weather Roundup
Issued by NWS Grand Forks, ND

Home | Current Version | Previous Version | Text Only | Print | Product List | Glossary On
Versions: 1 2 3 4 5 6 7 8 9 10 11 12 13 14 15 16 17 18 19 20 21 22 23 24 25 26 27 28 29 30 31 32 33 34 35 36 37 38 39 40 41 42 43 44 45 46 47 48 49 50
000
ASUS43 KFGF 022210
RWRFGF
PRAIRIE TO PINES  WEATHER ROUNDUP
NATIONAL WEATHER SERVICE EASTERN NORTH DAKOTA/GRAND FORKS ND
400 PM CST FRI DEC 02 2016

 **SATELLITE DATA USED TO AUGMENT SKY COVER AT AUTOMATED STATIONS**
 *****  WEATHER ACROSS EASTERN NORTH DAKOTA  *****

CITY           SKY/WX    TMP DP  RH WIND       PRES   REMARKS
GRAND FORKS    CLOUDY    32  22  66 W5        30.26R
GRAND FRKS AFB CLOUDY    32  21  64 CALM      30.26R
GRAND FRKS NWS   N/A     32 N/A N/A NW3         N/A
DEVILS LAKE    CLOUDY    29  21  72 SW8       30.24R WCI  21
FARGO          CLOUDY    30  21  69 NW12      30.28R WCI  20
WAHPETON ARPT  CLOUDY    28  21  74 W8        30.29S WCI  20
$$

 ***** WEATHER ACROSS CENTRAL AND WESTERN NORTH DAKOTA  *****

CITY           SKY/WX    TMP DP  RH WIND       PRES   REMARKS
BISMARCK       CLOUDY    27  20  75 S8        30.24S WCI  19
MINOT          CLOUDY    29  24  82 S9        30.17S WCI  20
JAMESTOWN      CLOUDY    27  20  75 CALM      30.25R
MINOT AFB      CLOUDY    28  24  86 S8        30.17S WCI  20
GARRISON         N/A     27  23  85 S13       30.18S WCI  16
WILLISTON      CLOUDY    31  25  78 SW7       30.15S WCI  24
DICKINSON      CLOUDY    29  25  85 W7        30.14S WCI  22
HETTINGER      MOCLDY    26  22  84 W5        30.18R WCI  20
$$

 *****  OTHER AIRPORT OBSERVATIONS IN OUR AREA  *****

CITY           SKY/WX    TMP DP  RH WIND       PRES   REMARKS
WALHALLA         N/A     30  30 100 SE5       30.24S
GRAFTON AIRPOR MOCLDY    32  27  80 CALM      30.27S
VALLEY CITY AR CLOUDY    27  21  80 CALM      30.28R
CANDO          CLOUDY    28  23  80 SW8       30.25S WCI  20
CAVALIER APRT    N/A     32  27  80 CALM      30.25R
GWINNER        CLOUDY    28  23  80 NW5       30.29R WCI  23
SHEYENNE NWR     N/A     27  19  70 NW5       29.95S WCI  22
ROLLA          CLOUDY    25  23  93 SW8       30.21R WCI  16
 ***** THE ABOVE OBSERVATIONS ARE NON NWS ARE NOT QUALITY
       CONTROLLED AND MAY MIS-REPORT RAIN FOR SNOW...
$$

  *****  WEATHER ACROSS NORTHERN MINNESOTA  *****

CITY           SKY/WX    TMP DP  RH WIND       PRES   REMARKS
FLAG ISLAND    CLOUDY    21  19  93 NW9       30.22S WCI  11
WARROAD        CLOUDY    25  21  86 W3        30.24R
ROSEAU         CLOUDY    27  21  80 NW5       30.24R WCI  21
HALLOCK        CLOUDY    30  25  80 CALM      30.25S
THF RVR FALLS  CLOUDY    28  21  75 NW6       30.25S WCI  22
BAUDETTE       CLOUDY    24  19  81 W7        30.22S WCI  16
WASKISH        CLOUDY    27  23  86 NW5       30.23S WCI  21
CROOKSTON      CLOUDY    30  25  80 N6        30.27S WCI  24
$$
  *****  WEATHER ACROSS CENTRAL AND WEST MINNESOTA  *****

CITY           SKY/WX    TMP DP  RH WIND       PRES   REMARKS
FOSSTON        CLOUDY    25  19  80 W6        30.25S WCI  18
BEMIDJI        CLOUDY    23  19  84 NW10      30.23S WCI  13
PARK RAPIDS    CLOUDY    26  19  74 NW7       30.23R WCI  18
ELBOW LAKE     CLOUDY    26  21  82 NW8       30.28R WCI  18
WADENA         CLOUDY    25  21  86 NW6       30.24R WCI  18
DETROIT LAKES  CLOUDY    28  23  80 N7        30.26R WCI  21
MOORHEAD       CLOUDY    28  21  74 N6        30.29R WCI  22
FERGUS FALLS   CLOUDY    27  19  74 NW7       30.31R WCI  19
MORRIS MN      CLOUDY    28  21  74 NW9       30.28R WCI  20
STAPLES        CLOUDY    25  21  86 NW9       30.24S WCI  15
$$
  *****  WEATHER ELSEWHERE ACROSS MINNESOTA  *****

CITY           SKY/WX    TMP DP  RH WIND       PRES   REMARKS
DULUTH         CLOUDY    29  23  78 NW7       30.19R WCI  22
INTRNTL FALLS  CLOUDY    24  20  84 W7        30.22R WCI  16
ELY            CLOUDY    25  23  93 CALM      30.19S
CLOQUET        CLOUDY    28  23  80 W6        30.21R WCI  22
WHEATON        CLOUDY   N/A N/A N/A N8        30.31R
BRAINERD       CLOUDY    26  21  81 NW9       30.24S WCI  17
HIBBING        CLOUDY    26  23  88 NW6       30.20R WCI  19
ALEXANDRIA     CLOUDY    27  21  78 NW6       30.26R WCI  20
SAINT CLOUD    CLOUDY    29  23  78 NW7       30.26R WCI  22
MINNEAPOLIS    CLOUDY    32  23  69 NW6       30.27R
$$

  *****  WEATHER ACROSS SOUTH DAKOTA  *****

CITY           SKY/WX    TMP DP  RH WIND       PRES   REMARKS
SIOUX FALLS    CLOUDY    32  25  75 W7        30.29R
BROOKINGS      CLOUDY    27  20  75 NW12      30.27R WCI  17
WATERTOWN      FLURRIES  25  19  78 N5        30.26R WCI  19
HURON          CLOUDY    30  24  78 NW7       30.30R WCI  23
SISSETON         N/A     28  20  71 NW8       30.28R WCI  20
ABERDEEN       CLOUDY    29  19  66 NW8       30.29S WCI  21
MITCHELL       CLOUDY    32  26  78 N5        30.31R
PIERRE         CLOUDY    30  25  81 S3        30.24F
MOBRIDGE       CLOUDY    30  23  75 E8        30.22S WCI  22
RAPID CITY     CLOUDY    38  25  59 CALM      30.19R
$$

  *****  SOME WEATHER IN NEARBY STATES *****

CITY           SKY/WX    TMP DP  RH WIND       PRES   REMARKS
GLASGOW MT     CLEAR     39  26  59 SW5       30.06F
GREAT FALLS MT SUNNY     32  20  61 SW21      30.00F WCI  20
CHEYENNE WY    CLOUDY    29  18  63 S9        30.13S WCI  20
SCOTTSBLUFF NE CLOUDY    41  19  41 CALM      30.18F
OMAHA NE       MOCLDY    39  29  67 N9        30.30S
DES MOINES IA  CLOUDY    40  31  70 NW7       30.29R
DAVENPORT IA   CLOUDY    36  28  73 NW12      30.28R
CHICAGO IL     CLOUDY    37  27  67 NW8       30.23R
EAU CLAIRE WI  CLOUDY    32  24  72 NW3       30.23R
LA CROSSE WI   CLOUDY    35  23  61 W6        30.26R
$$

  *****  SOME NATIONAL WEATHER *****

CITY           SKY/WX    TMP DP  RH WIND       PRES   REMARKS
LA GUARDIA NY  MOCLDY    51  26  37 W22       29.88R
RALEIGH NC     PTCLDY    53  29  39 W5        30.10R
ATLANTA GA     MOCLDY    58  27  30 NW10      30.22R
NEW ORLEANS LA CLOUDY    62  45  53 E14       30.17F
OKLAHOMA CITY  PTSUNNY   54  32  43 N7        30.13F
ALBUQUERQUE NM CLOUDY    46  19  34 E22       29.96R
SALT LAKE CITY MOSUNNY   36  20  52 N9        30.23R
LOS ANGELES CA SUNNY     66  10  11 N17G28    29.97F
BOISE ID       SUNNY     38  22  52 N3        30.35F
SEATTLE WA     CLOUDY    48  43  82 S14       30.14F
$$

*** WEATHER ACROSS MANITOBA...SASKATCHEWAN AND ONTARIO ***
                ***ONTARIO***

CITY           SKY/WX    TMP DP  RH WIND       PRES   REMARKS
GERALDTON      FLURRIES  25  23  93 NW7       30.11R WCI  17
THUNDER BAY    MOCLDY    32  25  74 NW7       30.19R
SIOUX LOOKOUT  CLOUDY    23  21  93 N2        30.19R
TORONTO        CLOUDY    37  34  87 W16       29.91R
BIG TROUT LK   CLOUDY    19  18  93 NW6       30.24R WCI  11
PICKLE LAKE    FLURRIES  19  16  86 NW5       30.18R WCI  13
DRYDEN         CLOUDY    21  19  93 W5        30.19R WCI  15
KENORA         FLURRIES  18  16  93 NW5       30.21S WCI  11
$$
                *** MANITOBA***

CITY           SKY/WX    TMP DP  RH WIND       PRES   REMARKS
BRANDON        FLURRIES  27  23  86 SW10      30.20S WCI  17
DAUPHIN        CLOUDY    28  27  93 S3        30.19S
ISLAND LAKE    FLURRIES  16  14  93 VRB2      30.25S
PILOT MOUND      N/A     27  23  86 W3          N/A
THE PAS        CLOUDY    25  23  93 SE6       30.16S WCI  18
THOMPSON       FLURRIES  16  12  86 VRB2      30.21S
WINNIPEG       CLOUDY    27  23  86 S3        30.25S
LYNN LAKE      FOG       16  16 100 S6        30.10F VSB 5/8 WCI   7
CHURCHILL      PTCLDY     5   3  92 SW7       30.22S WCI  -7
GILLAM         LGT SNOW  10   9  92 SW3       30.25F
$$
                ***SASKATCHEWAN***

CITY           SKY/WX    TMP DP  RH WIND       PRES   REMARKS
ESTEVAN        LGT SNOW  27  27 100 NW5       30.12F FOG     WCI  21
KINDERSLEY     CLOUDY    23  21  93 S15       29.92F WCI  10
LLOYDMINSTER   CLOUDY    25  23  93 S14       29.88F FOG     WCI  13
PRINCE ALBERT  FRZ DRZL  27  25  93 SE6       30.04F FOG     WCI  20
REGINA         CLOUDY    27  23  86 SE7       30.07F WCI  19
YORKTON        FLURRIES  28  27  93 SE7       30.10S WCI  21
N. BATTLEFORD  CLOUDY    25  25 100 S10       29.99F WCI  15
LA RONGE       FLURRIES  25  21  86 S8        30.04F WCI  16
SASKATOON      FLURRIES  27  23  86 S7        30.03F WCI  19
SWIFT CURRENT  CLOUDY    25  23  93 S9        29.95F WCI  15
$$
NOTE: THESE ARE AUTOMATED STATIONS WITH LIMITED QUALITY CONTROL
      "FAIR" INDICATES FEW OR NO CLOUDS BELOW 12,000 FEET WITH NO
      SIGNIFICANT WEATHER AND/OR OBSTRUCTIONS TO VISIBILITY.
      SKY/WX - SKY CONDITION AND SIGNIFICANT WEATHER.
      TMP - AIR TEMPERATURE.    DP   - DEWPOINT TEMPERATURE.
      RH  - RELATIVE HUMIDITY.  PRES - PRESSURE.
      HX  - HEAT INDEX.         WCI  - WIND CHILL INDEX.
$




USA.gov is the U.S. government's official web portal to all federal, state and local government web resources and services.